Hourly Data Report for July 23, 2021

CARIBOU POINT (AUT)
NOVA SCOTIA
Current Station Operator: ECCC - MSC

45°46'00.000" N
62°41'00.000" W
2.40 m
8200774
71415
WBK

Download Data

Hourly Data (July 2021)
Hourly Data Report for July 23, 2021
TIME
LST
Temp Definition
°C
Dew Point Definition
°C
Rel Hum Definition
%
Precip. Amount Definition
mm

Wind Dir Definition
10's deg

Wind Spd Definition
km/h
Visibility Definition
km
Stn Press Definition
kPa
Hmdx Definition


Wind Chill Definition


Weather Definition


00:00 15.7 13.3 86 0.0 33 29   101.26     LegendNANA
01:00 15.7 13.2 85 0.0 32 26   101.32     LegendNANA
02:00 15.9 13.3 84 0.0 30 29   101.32     LegendNANA
03:00 16.0 13.2 84 0.0 31 31   101.32     LegendNANA
04:00 16.0 13.4 84 0.0 32 33   101.33     LegendNANA
05:00 16.0 14.1 89 0.0 32 28   101.37     LegendNANA
06:00 16.1 13.9 87 0.0 31 27   101.44     LegendNANA
07:00 16.8 14.1 84 0.0 31 24   101.46     LegendNANA
08:00 17.3 14.5 84 0.0 31 23   101.50     LegendNANA
09:00 18.1 15.0 83 0.0 31 17   101.53     LegendNANA
10:00 18.4 15.5 83 0.0 31 18   101.56     LegendNANA
11:00 18.8 14.8 78 0.0 31 23   101.56     LegendNANA
12:00 19.8 16.0 79 0.0 30 16   101.53     LegendNANA
13:00 19.8 15.9 78 0.0 32 16   101.48     LegendNANA
14:00 19.4 15.8 80 0.0 34 24   101.46     LegendNANA
15:00 20.7 15.4 72 0.0 32 15   101.45 25   LegendNANA
16:00 20.5 15.3 72 0.0 32 11   101.45 25   LegendNANA
17:00 21.4 16.5 74 0.0 32 14   101.46 26   LegendNANA
18:00 20.3 15.5 74 0.0 32 17   101.48 25   LegendNANA
19:00 18.5 15.3 82 0.0 32 15   101.54     LegendNANA
20:00 17.9 15.7 87 0.0 29 13   101.57     LegendNANA
21:00 17.2 14.0 81 0.0 34 11   101.64     LegendNANA
22:00 17.1 14.4 84 0.0 33 16   101.65     LegendNANA
23:00 16.7 14.2 85 0.0 33 18   101.66     LegendNANA

Notes on Data Quality.

Legend

  • E = Estimated
  • M = Missing
  • NA = Not Available*
  • [empty] = Indicates an unobserved value
Date modified: